Weather History for LTAI - December, 2012

Change the Weather History Date:

Friday, December 7, 2012

  Actual Average Record
Temperature  
Mean Temperature 55 °F -  
Max Temperature 64 °F 61 °F - ()
Min Temperature 46 °F 45 °F - ()
Degree Days  
Heating Degree Days 10    
Growing Degree Days 5 (Base 50)    
Moisture  
Dew Point 46 °F    
Average Humidity 75    
Maximum Humidity 94    
Minimum Humidity 48    
Precipitation  
Precipitation 0.02 in 0.30 in - ()
Sea Level Pressure  
Sea Level Pressure 29.80 in    
Wind  
Wind Speed 7 mph ()    
Max Wind Speed 21 mph    
Max Gust Speed -    
Visibility 6.2 miles    
Events Rain    
T = Trace of Precipitation, MM = Missing Value Source: Averaged Metar Reports

Daily Weather History Graph

Daily Weather History Graph

Search for Another Location

Airport or City:

Trip Planner

Search our weather history database for the weather conditions in past years. The results will help you decide how hot, cold, wet, or windy it might be!

Date:

Astronomy

Dec. 07, 2012 Rise Set
Actual Time 6:56 AM EET 4:40 PM EET
Civil Twilight 6:27 AM EET 5:08 PM EET
Nautical Twilight 5:55 AM EET 5:41 PM EET
Astronomical Twilight 5:24 AM EET 6:12 PM EET
Moon 12:03 AM EET (12/7) 12:18 PM EET (12/7)
Length of Visible Light 10h 40m
Length of Day
9h 43m
Last Quarter, 42% of the Moon is Illuminated
Dec 7
Last Quarter
Dec 13
New
Dec 20
First Quarter
Dec 28
Full
Jan 5
Last Quarter

Hourly Weather History & Observations

Time (EET) Temp. Windchill Dew Point Humidity Pressure Visibility Wind Dir Wind Speed Gust Speed Precip Events Conditions
12:20 AM 51.8 °F - 50.0 °F 94% 29.83 in 6.2 mi NW 6.9 mph - N/A   Mostly Cloudy
12:50 AM 51.8 °F - 50.0 °F 94% 29.83 in 6.2 mi NW 10.4 mph - N/A   Mostly Cloudy
1:20 AM 50.0 °F - 48.2 °F 94% 29.80 in 6.2 mi NNW 6.9 mph - N/A   Mostly Cloudy
1:50 AM 50.0 °F - 48.2 °F 94% 29.80 in 6.2 mi NW 9.2 mph - N/A   Mostly Cloudy
2:00 AM 50 °F - 48 °F 92% 29.81 in 6 mi NW 9.2 mph - -   Mostly Cloudy
2:20 AM 50.0 °F - 46.4 °F 87% 29.80 in 6.2 mi NNW 6.9 mph - N/A   Mostly Cloudy
2:50 AM 48.2 °F - 46.4 °F 93% 29.80 in 6.2 mi NNW 5.8 mph - N/A   Mostly Cloudy
3:20 AM 48.2 °F - 46.4 °F 93% 29.80 in 6.2 mi NNW 5.8 mph - N/A   Mostly Cloudy
3:50 AM 50.0 °F - 46.4 °F 87% 29.80 in 6.2 mi NW 8.1 mph - N/A   Mostly Cloudy
4:20 AM 48.2 °F - 46.4 °F 93% 29.80 in 6.2 mi North 5.8 mph - N/A   Mostly Cloudy
4:50 AM 48.2 °F - 46.4 °F 93% 29.80 in 6.2 mi North 3.5 mph - N/A   Mostly Cloudy
5:20 AM 46.4 °F 44.3 °F 44.6 °F 93% 29.80 in 6.2 mi NNW 4.6 mph - N/A   Mostly Cloudy
5:50 AM 48.2 °F - 44.6 °F 87% 29.80 in 6.2 mi North 4.6 mph - N/A   Mostly Cloudy
6:20 AM 48.2 °F - 44.6 °F 87% 29.80 in 6.2 mi Variable 2.3 mph - N/A   Mostly Cloudy
6:50 AM 50.0 °F - 46.4 °F 87% 29.83 in 6.2 mi NNW 5.8 mph - N/A   Mostly Cloudy
7:20 AM 48.2 °F - 44.6 °F 87% 29.83 in 6.2 mi Variable 2.3 mph - N/A   Mostly Cloudy
7:50 AM 50.0 °F - 46.4 °F 87% 29.83 in 6.2 mi NNW 4.6 mph - N/A   Scattered Clouds
8:00 AM 49 °F - 46 °F 85% 29.82 in 6 mi NNW 4.6 mph - -   Partly Cloudy
8:20 AM 51.8 °F - 48.2 °F 88% 29.83 in 6.2 mi North 5.8 mph - N/A   Scattered Clouds
8:50 AM 53.6 °F - 48.2 °F 82% 29.83 in 6.2 mi North 6.9 mph - N/A   Scattered Clouds
9:20 AM 55.4 °F - 50.0 °F 82% 29.83 in 6.2 mi North 6.9 mph - N/A   Scattered Clouds
9:50 AM 57.2 °F - 51.8 °F 82% 29.83 in 6.2 mi North 6.9 mph - N/A   Scattered Clouds
10:20 AM 59.0 °F - 51.8 °F 77% 29.83 in 6.2 mi North 5.8 mph - N/A   Scattered Clouds
10:50 AM 60.8 °F - 51.8 °F 72% 29.80 in 6.2 mi NNE 5.8 mph - N/A   Scattered Clouds
11:20 AM 62.6 °F - 50.0 °F 63% 29.80 in 6.2 mi NE 4.6 mph - N/A   Scattered Clouds
11:50 AM 62.6 °F - 51.8 °F 68% 29.80 in 6.2 mi North 3.5 mph - N/A   Scattered Clouds
12:20 PM 62.6 °F - 48.2 °F 59% 29.77 in 6.2 mi Variable 2.3 mph - N/A   Scattered Clouds
12:50 PM 64.4 °F - 48.2 °F 56% 29.77 in 6.2 mi ESE 4.6 mph - N/A   Scattered Clouds
1:20 PM 62.6 °F - 48.2 °F 59% 29.77 in 6.2 mi Variable 3.5 mph - N/A   Scattered Clouds
1:50 PM 62.6 °F - 50.0 °F 63% 29.77 in 6.2 mi Variable 1.2 mph - N/A   Scattered Clouds
2:00 PM 63 °F - 48 °F 48% 29.75 in 6 mi ENE 1.2 mph - -   Partly Cloudy
2:20 PM 62.6 °F - 50.0 °F 63% 29.77 in 6.2 mi Variable 1.2 mph - N/A   Scattered Clouds
2:50 PM 62.6 °F - 46.4 °F 55% 29.74 in 6.2 mi West 3.5 mph - N/A   Scattered Clouds
3:20 PM 62.6 °F - 48.2 °F 59% 29.74 in 6.2 mi SW 4.6 mph - N/A   Scattered Clouds
3:50 PM 60.8 °F - 48.2 °F 63% 29.77 in 6.2 mi West 4.6 mph - N/A   Scattered Clouds
4:20 PM 59.0 °F - 48.2 °F 67% 29.74 in 6.2 mi West 4.6 mph - N/A   Scattered Clouds
4:50 PM 57.2 °F - 50.0 °F 77% 29.77 in 6.2 mi WNW 6.9 mph - N/A   Scattered Clouds
5:20 PM 59.0 °F - 50.0 °F 72% 29.77 in 6.2 mi NW 9.2 mph - N/A Rain Light Rain Showers
5:50 PM 57.2 °F - 46.4 °F 67% 29.77 in 6.2 mi NW 12.7 mph - N/A   Mostly Cloudy
6:20 PM 55.4 °F - 44.6 °F 67% 29.80 in 6.2 mi NNW 9.2 mph - N/A   Mostly Cloudy
6:50 PM 53.6 °F - 44.6 °F 72% 29.80 in 6.2 mi North 12.7 mph - N/A   Scattered Clouds
7:20 PM 53.6 °F - 46.4 °F 77% 29.80 in 6.2 mi North 12.7 mph - N/A   Scattered Clouds
7:50 PM 53.6 °F - 44.6 °F 72% 29.80 in 6.2 mi North 20.7 mph - N/A   Scattered Clouds
8:00 PM 53 °F - 45 °F 66% 29.79 in 6 mi North 20.7 mph - -   Partly Cloudy
8:20 PM 53.6 °F - 41.0 °F 62% 29.80 in 6.2 mi NNW 19.6 mph - N/A   Scattered Clouds
8:50 PM 55.4 °F - 39.2 °F 54% 29.83 in 6.2 mi NNW 19.6 mph - N/A   Scattered Clouds
9:20 PM 55.4 °F - 39.2 °F 54% 29.83 in 6.2 mi NNW 16.1 mph - N/A   Scattered Clouds
9:50 PM 55.4 °F - 39.2 °F 54% 29.83 in 6.2 mi NNW 16.1 mph - N/A   Scattered Clouds
10:20 PM 51.8 °F - 41.0 °F 67% 29.86 in 6.2 mi North 17.3 mph - N/A   Scattered Clouds
10:50 PM 53.6 °F - 37.4 °F 54% 29.86 in 6.2 mi NNW 15.0 mph - N/A   Scattered Clouds
11:20 PM 51.8 °F - 39.2 °F 62% 29.89 in 6.2 mi North 12.7 mph - N/A   Scattered Clouds
11:50 PM 50.0 °F - 39.2 °F 66% 29.89 in 6.2 mi NNW 15.0 mph - N/A   Scattered Clouds